Regional Weather Roundup
Issued by NWS Newport/Morehead, NC

Current Version | Previous Version | Graphics & Text | Print | Product List | Glossary Off
Versions: 1 2 3 4 5 6 7 8 9 10 11 12 13 14 15 16 17 18 19 20 21 22 23 24 25 26 27 28 29 30 31 32 33 34 35 36 37 38 39 40 41 42 43 44 45 46 47 48 49 50

000
ASUS42 KMHX 101613
RWRMHX
WEATHER ROUNDUP FOR EASTERN NORTH CAROLINA
NATIONAL WEATHER SERVICE NEWPORT/MOREHEAD CITY NC
1100 AM EST WED FEB 10 2016

NOTE: "FAIR" INDICATES FEW OR NO CLOUDS BELOW 12,000 FEET
WITH NO SIGNIFICANT WEATHER AND/OR OBSTRUCTIONS TO VISIBILITY

NCZ015>017-031-032-045>047-102-103-101700-
NORTH COAST

CITY           SKY/WX    TMP DP  RH WIND       PRES   REMARKS
EDENTON        SUNNY     38  19  46 W9G16     29.91S
ELIZABETH CITY SUNNY     36  20  52 W12       29.88F
KITTY HAWK     SUNNY     38  20  49 W12       29.87S
MANTEO         SUNNY     36  21  54 W13G18    29.89F

$$

NCZ045>047-081-094-103-104-101700-
CENTRAL COAST

CITY           SKY/WX    TMP DP  RH WIND       PRES   REMARKS
FRISCO         SUNNY     38  20  48 W14G23    29.92R
SWANQUARTER      N/A     36 N/A N/A W3G22     29.88S

$$

NCZ095-097-098-100-101-101700-
SOUTHERN COAST

CITY           SKY/WX    TMP DP  RH WIND       PRES   REMARKS
BEAUFORT       SUNNY     39  19  44 W16       29.94F
CEDAR ISLAND     N/A     37 N/A N/A W16       29.97S
JACKSONVILLE   SUNNY     38  15  39 NW15      29.95F
PINEY ISLAND   SUNNY    N/A N/A N/A W14G22    29.93F
WILMINGTON     PTSUNNY   40  21  46 W17       29.97F


$$

NCZ011>013-027>030-043-044-078>080-089-090>093-098-101700-
COASTAL PLAIN

CITY           SKY/WX    TMP DP  RH WIND       PRES   REMARKS
AHOSKIE        SUNNY     35  17  48 W5        29.90S
CLINTON        SUNNY     36  18  47 W8        29.96F
ELIZABETHTOWN  SUNNY     36  17  46 W12       29.97F
GOLDSBORO      SUNNY     37  16  41 W16       29.93S
GREENVILLE     SUNNY     36  18  48 W9        29.96R
HAVELOCK       SUNNY     39  16  39 NW18      29.95F
KENANSVILLE    SUNNY     36  15  43 W13       29.97F
KINSTON        SUNNY     37  16  41 W9        29.95F
NEW BERN       SUNNY     38  17  42 W13G21    29.95S
RICHLANDS      SUNNY     37  14  38 SW7G18    29.96F
ROCKY MOUNT    SUNNY     34  17  50 W10       29.93S
WASHINGTON     SUNNY     36  18  48 W8        29.93S
WHITEVILLE     SUNNY     36  19  51 SW7       29.97F

$$

AMZ130-135-150-152-154-156-158-170-250-252-270-ANZ085-086-088-633-658-670-101700-
MARINE OBSERVATIONS

STATION/POSITION TIME  TEMP    WIND        PRES    WAVE   SWELL
                       AIR SEA DIR/SP/G            HT/PER HT/PER
                 (UTC) (F)     (DEG/KT/KT) (MB)    (FT/S) (FT/S)
CHESAPEAKE LIGHT 1600   36     280/ 14/ 16 1011.3
64 E VA BEACH    1550   37 51  290/ 17/ 23 1010.1    7/13   3/13
DUCK             1500   33     280/ 13/ 18 1011.3
2 E DUCK         1511      44                N/A     3/13   3/13
OREGON INLET     1500   34 43  270/ 12/ 18 1012.0
13E OREGON INLT  1600      47                N/A     6/13   5/13
HATTERAS CG      1500   34 49  290/ 22/ 26 1012.6
DIAMOND BUOY     1550   37 72  290/ 21/ 25 1013.0    8/ 7   3/13
CAPE LOOKOUT     NOT AVBL
BEAUFORT LAB     1500   35 46  280/  8/ 17 1013.2
30 SE NEW RVR IN 1508   39 58              1014.2
30 SE NEW RVR IN 1525      58                N/A     8/ 8   3/11
27 SE WRIGHTSVLE 1508   40 61  360/ 14/ 23 1013.2
5 SE WRIGHTSVLE  1508   37 51  290/ 12/ 19 1015.2
225 S CAPE HAT   1550   54 68  280/ 31/ 39   N/A    19/11  11/11
41 SE CHARLESTON 1550   38 63  270/ 21/ 27 1016.7    7/ 7   2/14

$$



USA.gov is the U.S. government's official web portal to all federal, state and local government web resources and services.